AirNav   Free Bose Alto or Rondo audio sunglasses
 
 1348 users online  

46NH Upper Valley Heliport
Orford, New Hampshire, USA

GOING TO ORFORD?


FAA INFORMATION EFFECTIVE 03 DECEMBER 2020

Location

FAA Identifier: 46NH
Lat/Long: 43-51-36.1000N 072-05-45.1900W
43-51.601667N 072-05.753167W
43.8600278,-72.0958861
(estimated)
Elevation: 1196 ft. / 365 m (estimated)
From city: 4 miles SSE of ORFORD, NH
Time zone: UTC -5 (UTC -4 during Daylight Saving Time)
Zip code: 03777

Heliport Operations

Heliport use: Private use. Permission required prior to landing
Activation date: 12/2015
Control tower: no
ARTCC: BOSTON CENTER
FSS: BANGOR FLIGHT SERVICE STATION
Attendance: UNATNDD
Wind indicator: yes
Segmented circle: no

Heliport Communications

WX AWOS-3 at 1P1 (16 nm E): 118.45 (603-536-1698)
WX ASOS at LEB (17 nm SW): 118.65 (603-298-8780)

Nearby radio navigation aids

VOR radial/distance  VOR name  Freq  Var
LEBr041/12.1LEBANON VOR/DME113.7015W
MPVr148/20.4MONTPELIER VOR/DME110.8016W

 
NDB name  Hdg/Dist  Freq  Var  ID
HANOVER035/10.127615WLAH .-.. .- ....
CLAREMONT038/31.823316WCNH -.-. -. ....
MAHN227/34.938617WGMA --. -- .-
SMUTO091/38.422115WDYO -.. -.-- ---

Heliport Services

Runway Information

Helipad H1

Dimensions: 90 x 90 ft. / 27 x 27 m
Surface: turf
Traffic pattern: leftleft

Heliport Ownership and Management from official FAA records

Ownership: Privately-owned
Owner: GREGORY WAYNE LANDGRAF
104 UPPER STONEHOUSE ROAD
ORFORD, NH 03777
Phone (603) 359-4444
Manager: GREGORY WAYNE LANDGRAF
104 UPPER STONEHOUSE ROAD
ORFORD, NH 03777
Phone (603) 359-4444

Heliport Operational Statistics

Aircraft based on the field: 1
Helicopters: 1
    

Additional Remarks

FOR CD CTC BOSTON ARTCC AT 603-879-6859.

Instrument Procedures

There are no published instrument procedures at 46NH.

Some nearby airports with instrument procedures:

5B9 - Dean Memorial Airport (14 nm N)
KLEB - Lebanon Municipal Airport (17 nm SW)
2B3 - Parlin Field Airport (29 nm S)
KMPV - Edward F Knapp State Airport (29 nm NW)
KCNH - Claremont Municipal Airport (32 nm S)
 
Loc | Ops | Rwys | IFR | FBO | Links
Com | Nav | Svcs | Stats | Notes
Aerial photo
No photo
 
Airport distance calculator
Flying to Upper Valley Heliport? Find the distance to fly.

From to 46NH

Sunrise and sunset
Times for 03-Dec-2020
 Local
(UTC-5)
 Zulu
(UTC)
Morning civil twilight06:3411:34
Sunrise07:0712:07
Sunset16:1021:10
Evening civil twilight16:4321:43

Current date and time
Zulu (UTC)  03-Dec-2020 20:46:39
Local (UTC-5)  03-Dec-2020 15:46:39
 
METAR
K1P1 
16nm E 
032035Z AUTO 00000KT 10SM CLR 06/M02 A2999 RMK AO2 T00551022
KLEB 
16nm SW 
031953Z 19008KT 10SM CLR 08/M03 A2999 RMK AO2 SLP163 T00831033
KMPV 
29nm NW 
031951Z AUTO 22010KT 10SM CLR 06/M03 A2998 RMK AO2 SLP166 T00561033
TAF
KLEB 
16nm SW 
031735Z 0318/0418 19008KT P6SM FEW040
NOTAMs
Click for the latest NOTAMs
NOTAMs are issued by the DoD/FAA and will open in a separate window not controlled by AirNav.

 

 
 

Would you like to see your business listed on this page?

 If your business provides an interesting product or service to pilots, flight crews, aircraft, or users of the Upper Valley Heliport, you should consider listing it here.  To start the listing process, click on the button below
 
Add a business
 

Other Pages about Upper Valley Heliport

Update a link
 
Copyright © AirNav, LLC. All rights reserved. Privacy Policy  Contact